Waarnemingen

Advertentie
Mijn weer
Groningen Eelde, Nederland (6280): temperatuur & dauwpunt: 19.06.2017 05:00:00 - 25.06.2017 05:00:00 (CEST)Groningen Eelde, Nederland (6280): temperatuur 5cm: 19.06.2017 05:00:00 - 25.06.2017 05:00:00 (CEST)Groningen Eelde, Nederland (6280): windsnelheid & windstoten: 19.06.2017 05:00:00 - 25.06.2017 05:00:00 (CEST)Groningen Eelde, Nederland (6280): windrichting: 19.06.2017 05:00:00 - 25.06.2017 05:00:00 (CEST)Groningen Eelde, Nederland (6280): luchtdruk: 19.06.2017 05:00:00 - 25.06.2017 05:00:00 (CEST)Groningen Eelde, Nederland (6280): zicht: 19.06.2017 05:00:00 - 25.06.2017 05:00:00 (CEST)Groningen Eelde, Nederland (6280): neerslag: 19.06.2017 05:00:00 - 25.06.2017 05:00:00 (CEST)
Datum & Tijd tt [°C] td [°C] tt 5cm [°C] ff [km/u] ff [kn] fx [km/u] fx [kn] dd ppp [hPa] vv [km] rr [mm]
25.06.2017 05:00:00 16,1 15,6 15,8 13 7 32 18 WNW 1008,0 5 0,2
25.06.2017 04:00:00 17,1 16,3 16,7 24 13 36 19 WZW 1007,8 6 3,0
25.06.2017 03:00:00 17,1 16,4 16,6 18 10 29 16 ZZW 1007,7 7 0,4
25.06.2017 02:00:00 17,0 16,2 16,8 18 10 29 16 ZZW 1008,7 9 0,4
25.06.2017 01:00:00 16,9 15,9 16,5 15 8 25 14 ZZW 1009,4 10 0,0
25.06.2017 00:00:00 17,4 15,3 16,9 21 11 32 18 ZW 1010,1 10 0,0
24.06.2017 23:00:00 17,9 15,3 17,4 22 12 36 19 ZW 1010,6 10 0,0
24.06.2017 22:00:00 18,3 15,1 17,7 21 11 32 18 ZW 1010,5 10 0,0
24.06.2017 21:00:00 18,2 15,4 17,8 15 8 25 14 ZW 1010,5 10 0,0
24.06.2017 20:00:00 18,2 14,4 18,1 13 7 25 14 W 1011,3 10 0,0
24.06.2017 19:00:00 18,0 13,8 18,2 15 8 29 16 W 1011,5 10 0,0
24.06.2017 18:00:00 18,4 13,1 18,5 16 9 32 18 W 1012,0 10 0,0
24.06.2017 17:00:00 19,0 13,4 19,0 22 12 36 19 W 1012,0 10 0,0
24.06.2017 16:00:00 18,8 13,3 18,7 24 13 36 19 W 1012,4 10 0,0
24.06.2017 15:00:00 19,0 14,0 19,9 29 16 47 25 W 1012,2 10 0,0
24.06.2017 14:00:00 19,0 15,1 19,9 24 13 43 23 W 1011,9 10 0,0
24.06.2017 13:00:00 19,1 17,4 19,3 22 12 40 21 WZW 1011,3 10 0,2
24.06.2017 12:00:00 17,0 15,9 16,7 18 10 36 19 WZW 1011,4 10 0,1
24.06.2017 11:00:00 17,2 16,0 17,1 22 12 32 18 WZW 1011,1 10 0,0
24.06.2017 10:00:00 17,1 16,2 16,8 18 10 36 19 WZW 1011,1 10 0,1
24.06.2017 09:00:00 16,7 16,1 16,6 21 11 32 18 WZW 1011,1 3,9 0,2
24.06.2017 08:00:00 16,7 16,0 16,5 21 11 29 16 WZW 1011,0 9 0,4
24.06.2017 07:00:00 16,5 16,2 16,4 18 10 25 14 ZW 1011,3 7 0,1
24.06.2017 06:00:00 16,5 16,1 16,2 9 5 22 12 WZW 1011,6 8 0,4
24.06.2017 05:00:00 16,3 15,8 16,1 16 9 29 16 WZW 1011,9 5 0,9
24.06.2017 04:00:00 16,5 16,1 16,2 15 8 29 16 WZW 1012,4 5 0,8
24.06.2017 03:00:00 16,5 16,1 16,3 21 11 32 18 WZW 1012,8 5 1,6
24.06.2017 02:00:00 16,5 16,1 16,2 16 9 25 14 WZW 1013,2 3,3 1,7
24.06.2017 01:00:00 15,9 15,4 15,7 8 4 14 8 WZW 1013,6 6 0,3
24.06.2017 00:00:00 15,8 15,1 15,4 9 5 18 10 ZW 1013,8 10 0,0
23.06.2017 23:00:00 15,6 15,0 15,3 13 7 22 12 ZW 1014,0 9 0,1
23.06.2017 22:00:00 15,4 14,7 15,1 16 9 29 16 WZW 1014,5 4,4 0,3
23.06.2017 21:00:00 16,3 14,0 15,9 15 8 32 18 WZW 1014,6 10 0,0
23.06.2017 20:00:00 16,4 14,2 16,1 13 7 29 16 WZW 1014,5 10 0,1
23.06.2017 19:00:00 16,4 13,2 16,0 22 12 43 23 WZW 1014,2 10 0,1
23.06.2017 18:00:00 18,2 12,7 18,3 29 16 47 25 W 1014,3 10 0,0
23.06.2017 17:00:00 20,7 13,1 21,1 28 15 47 25 WZW 1013,6 10 0,0
23.06.2017 16:00:00 20,7 13,8 21,2 22 12 36 19 W 1013,5 10 0,0
23.06.2017 15:00:00 20,7 13,1 22,0 28 15 47 25 WZW 1013,7 10 0,0
23.06.2017 14:00:00 21,2 12,6 22,4 26 14 40 21 WZW 1013,5 10 0,0
23.06.2017 13:00:00 19,8 12,6 20,5 28 15 40 21 W 1013,7 10 0,0
23.06.2017 12:00:00 20,8 11,7 22,2 26 14 47 25 WZW 1013,5 10 0,0
23.06.2017 11:00:00 20,5 12,0 21,6 26 14 40 21 W 1013,1 10 0,0
23.06.2017 10:00:00 18,3 14,3 18,5 21 11 32 18 W 1013,0 10 0,0
23.06.2017 09:00:00 17,6 14,1 18,4 16 9 29 16 W 1012,5 10 0,0
23.06.2017 08:00:00 16,4 13,9 16,4 15 8 32 18 W 1012,0 10 0,0
23.06.2017 07:00:00 16,1 13,3 15,8 18 10 32 18 W 1011,6 10 0,0
23.06.2017 06:00:00 15,9 13,7 15,5 16 9 36 19 W 1011,2 10 0,0
23.06.2017 05:00:00 16,0 13,2 15,7 26 14 40 21 W 1010,6 10 0,0
23.06.2017 04:00:00 16,1 13,6 15,6 21 11 36 19 W 1010,6 10 0,0
23.06.2017 03:00:00 16,9 14,9 16,5 22 12 36 19 W 1010,6 10 0,0
23.06.2017 02:00:00 16,9 14,9 16,5 18 10 36 19 W 1010,0 10 0,0
23.06.2017 01:00:00 16,7 15,3 16,4 18 10 40 21 W 1009,5 8 0,0
23.06.2017 00:00:00 16,8 15,5 16,7 26 14 54 29 W 1009,0 10 0,0
22.06.2017 23:00:00 17,8 16,1 17,5 22 12 43 23 W 1007,9 10 0,0
22.06.2017 22:00:00 18,5 15,4 17,9 26 14 43 23 W 1007,4 10 0,0
22.06.2017 21:00:00 18,5 16,6 18,3 21 11 40 21 W 1007,1 7 0,0
22.06.2017 20:00:00 19,5 17,1 19,4 21 11 43 23 W 1007,2 10 0,0
22.06.2017 19:00:00 20,6 17,1 20,0 22 12 72 39 W 1007,5 10 0,0
22.06.2017 18:00:00 22,3 18,9 21,3 15 8 32 18 ZZO 1006,1 10 0,4
22.06.2017 17:00:00 24,6 18,5 24,7 28 15 47 25 W 1008,1 10 0,0
22.06.2017 16:00:00 28,1 16,0 29,0 26 14 43 23 WZW 1007,2 10 0,0
22.06.2017 15:00:00 29,6 17,9 31,3 26 14 40 21 WZW 1007,4 10 0,0
22.06.2017 14:00:00 29,5 19,0 31,4 21 11 43 23 WZW 1007,7 10 0,0
22.06.2017 13:00:00 29,3 18,5 31,4 26 14 36 19 W 1008,1 10 0,0
22.06.2017 12:00:00 28,6 19,1 29,8 28 15 43 23 WZW 1008,5 10 0,0
22.06.2017 11:00:00 29,5 17,5 30,6 29 16 40 21 WZW 1008,6 10 0,0
22.06.2017 10:00:00 27,2 17,5 26,9 22 12 32 18 ZW 1008,4 10 0,0
22.06.2017 09:00:00 24,9 16,8 24,1 13 7 22 12 Z 1008,4 10 0,0
22.06.2017 08:00:00 21,3 15,1 20,5 13 7 22 12 Z 1009,1 10 0,0
22.06.2017 07:00:00 18,5 13,6 17,7 15 8 22 12 Z 1009,7 10 0,0
22.06.2017 06:00:00 16,4 12,5 15,1 9 5 14 8 ZO 1010,8 10 0,0
22.06.2017 05:00:00 16,0 12,1 15,1 11 6 18 10 OZO 1011,8 10 0,0
22.06.2017 04:00:00 15,5 12,4 14,5 8 4 14 8 O 1012,8 10 0,0
22.06.2017 03:00:00 15,7 12,5 14,4 8 4 14 8 O 1013,6 10 0,0
22.06.2017 02:00:00 15,6 12,6 14,4 9 5 18 10 OZO 1014,0 10 0,0
22.06.2017 01:00:00 16,2 13,0 15,3 11 6 22 12 O 1014,2 10 0,0
22.06.2017 00:00:00 16,6 13,4 15,5 15 8 22 12 O 1015,0 10 0,0
21.06.2017 23:00:00 16,7 14,1 14,4 9 5 14 8 ONO 1015,4 10 0,0
21.06.2017 22:00:00 17,8 14,2 16,0 9 5 14 8 ONO 1015,7 10 0,0
21.06.2017 21:00:00 19,7 14,5 19,1 13 7 25 14 NO 1015,7 10 0,0
21.06.2017 20:00:00 20,7 13,8 20,5 16 9 25 14 NO 1015,9 10 0,0
21.06.2017 19:00:00 24,1 13,1 24,8 9 5 18 10 N 1016,2 10 0,0
21.06.2017 18:00:00 24,3 12,8 26,2 5 3 14 8 NNW 1016,5 10 0,0
21.06.2017 17:00:00 23,9 12,4 26,4 5 3 14 8 - 1017,0 10 0,0
21.06.2017 16:00:00 23,1 11,6 25,7 8 4 14 8 - 1017,3 10 0,0
21.06.2017 15:00:00 22,0 10,8 24,9 5 3 14 8 O 1018,1 10 0,0
21.06.2017 14:00:00 20,9 10,2 24,3 7 4 22 12 OZO 1018,9 42 0,0
21.06.2017 13:00:00 20,0 10,4 23,7 9 5 22 12 ZO 1019,5 10 0,0
21.06.2017 12:00:00 18,9 9,5 22,3 9 5 18 10 - 1020,0 10 0,0
21.06.2017 11:00:00 17,8 10,6 19,7 9 5 18 10 ONO 1020,3 10 0,0
21.06.2017 10:00:00 17,0 11,1 18,9 11 6 18 10 ONO 1020,3 10 0,0
21.06.2017 09:00:00 16,0 10,2 17,7 11 6 22 12 ONO 1020,6 10 0,0
21.06.2017 08:00:00 14,6 10,0 15,4 15 8 22 12 ONO 1020,7 10 0,0
21.06.2017 07:00:00 13,2 10,7 13,2 9 5 11 6 ONO 1020,7 10 0,0
21.06.2017 06:00:00 10,0 10,0 7,6 2 1 4 2 - 1020,9 10 0,0
21.06.2017 05:00:00 9,5 8,9 4,8 2 1 7 4 - 1020,9 10 0,0
21.06.2017 04:00:00 9,9 9,4 6,4 4 2 11 6 NO 1020,8 10 0,0
21.06.2017 03:00:00 10,7 9,2 7,7 5 3 11 6 NO 1021,1 10 0,0
21.06.2017 02:00:00 10,9 9,0 7,2 5 3 11 6 NNO 1021,3 10 0,0
21.06.2017 01:00:00 11,0 9,0 8,4 9 5 11 6 NO 1021,2 10 0,0
21.06.2017 00:00:00 11,8 9,1 9,8 9 5 14 8 NO 1021,3 10 0,0
20.06.2017 23:00:00 13,3 9,4 12,2 13 7 22 12 NO 1021,2 10 0,0
20.06.2017 22:00:00 14,4 9,6 13,5 16 9 25 14 NO 1021,4 10 0,0
20.06.2017 21:00:00 15,6 9,7 15,2 18 10 32 18 NO 1021,1 10 0,0
20.06.2017 20:00:00 16,9 9,7 17,0 21 11 36 19 NNO 1020,8 10 0,0
20.06.2017 19:00:00 18,1 10,6 18,9 24 13 36 19 NNO 1020,7 10 0,0
20.06.2017 18:00:00 19,1 11,2 20,7 21 11 36 19 NO 1020,7 10 0,0
20.06.2017 17:00:00 20,1 11,0 22,1 22 12 32 18 NNO 1020,7 10 0,0
20.06.2017 16:00:00 20,1 12,5 22,0 22 12 32 18 NO 1020,5 10 0,0
20.06.2017 15:00:00 20,0 13,0 21,8 21 11 29 16 NNO 1020,6 10 0,0
20.06.2017 14:00:00 19,9 14,0 21,8 21 11 32 18 NO 1020,4 10 0,0
20.06.2017 13:00:00 19,0 13,7 20,5 21 11 29 16 NO 1020,5 10 0,0
20.06.2017 12:00:00 18,0 15,0 19,2 18 10 25 14 NNO 1020,4 10 0,0
20.06.2017 11:00:00 19,2 15,6 21,2 16 9 25 14 NNO 1019,9 10 0,0
20.06.2017 10:00:00 19,1 16,0 20,9 16 9 29 16 NNO 1019,5 10 0,0
20.06.2017 09:00:00 19,0 15,8 20,6 18 10 29 16 NNO 1018,9 10 0,0
20.06.2017 08:00:00 18,2 16,4 18,6 18 10 29 16 NNO 1018,5 9 0,0
20.06.2017 07:00:00 18,2 16,9 18,2 15 8 25 14 N 1018,0 6 0,0
20.06.2017 06:00:00 15,3 15,2 12,8 5 3 7 4 NNW 1017,6 2,1 0,0
20.06.2017 05:00:00 15,3 15,0 12,8 5 3 14 8 N 1017,5 1,9 0,0
20.06.2017 04:00:00 18,0 16,7 16,6 9 5 18 10 N 1017,5 4,4 0,0
20.06.2017 03:00:00 17,6 16,1 12,5 5 3 11 6 N 1017,6 6 0,0
20.06.2017 02:00:00 17,3 16,7 13,3 4 2 11 6 NNW 1017,6 7 0,0
20.06.2017 01:00:00 17,8 16,2 13,7 4 2 7 4 NW 1017,9 10 0,0
20.06.2017 00:00:00 19,1 16,0 15,2 5 3 11 6 NNW 1018,0 10 0,0
19.06.2017 23:00:00 20,8 15,6 17,8 8 4 14 8 N 1018,0 10 0,0
19.06.2017 22:00:00 22,3 15,9 20,9 11 6 22 12 NNO 1017,8 10 0,0
19.06.2017 21:00:00 24,0 16,7 23,1 13 7 25 14 N 1017,7 10 0,0
19.06.2017 20:00:00 25,6 17,5 25,5 16 9 25 14 N 1017,7 10 0,0
19.06.2017 19:00:00 27,1 18,3 27,3 9 5 25 14 N 1017,6 10 0,0
19.06.2017 18:00:00 28,5 15,5 29,2 8 4 18 10 ZZW 1017,8 10 0,0
19.06.2017 17:00:00 29,4 14,7 32,1 5 3 18 10 - 1018,1 10 0,0
19.06.2017 16:00:00 29,4 16,0 31,9 11 6 22 12 - 1018,7 10 0,0
19.06.2017 15:00:00 28,3 15,8 29,4 9 5 18 10 - 1019,3 10 0,0
19.06.2017 14:00:00 27,8 15,9 28,3 8 4 18 10 - 1020,0 10 0,0
19.06.2017 13:00:00 27,2 15,7 28,2 9 5 22 12 - 1020,5 10 0,0
19.06.2017 12:00:00 26,6 15,5 29,1 13 7 18 10 ZZW 1020,9 10 0,0
19.06.2017 11:00:00 26,3 16,4 28,2 11 6 22 12 Z 1021,1 10 0,0
19.06.2017 10:00:00 25,5 16,5 27,5 11 6 14 8 Z 1021,6 10 0,0
19.06.2017 09:00:00 24,0 17,0 25,3 9 5 14 8 Z 1021,9 10 0,0
19.06.2017 08:00:00 21,9 17,1 22,5 4 2 7 4 - 1022,0 10 0,0
19.06.2017 07:00:00 18,0 16,2 17,6 4 2 7 4 - 1022,0 10 0,0
19.06.2017 06:00:00 15,3 14,6 13,4 4 2 7 4 OZO 1022,1 10 0,0
19.06.2017 05:00:00 16,1 14,9 14,3 5 3 11 6 O 1022,1 10 0,0

tt = temperatuur
td = dauwpunt
tt 5cm = temperatuur 5cm
ff = windsnelheid
fx = windstoten
dd = windrichting
ppp = luchtdruk
vv = zicht
rr = neerslag

Weerstations in de omgeving